[[{"header":{"parameterUnit":"m.s-1","parameterCategory":1,"la1":30.2991,"la2":30.254,"lo1":-89.0895,"lo2":-89.0444,"dy":0.0017,"dx":0.0017,"nx":28,"ny":28,"refTime":"2024-12-12T03:00:00:Z","depth":0,"parameterNumber":2,"parameterNumberName":"U-component_of_WINDS"},"data":[0,0,0,0,0,0,0,0,0,0,0,0,0,0,0,0,0,0,0,0,0,0,0,0,0,0,0,0,0,0,0,0,0,0,0,0,0,0,0,0,0,0,0,0,0,0,0,0,0,0,0,0,0,0,0,0,0,0,1.8743,1.8743,0,1.8717,1.8717,1.8716,1.8659,1.8657,1.8656,1.8655,1.8629,1.863,1.863,0,0,0,0,0,0,0,0,0,0,0,0,0,1.8745,1.8745,1.8743,1.8743,1.8743,1.8717,1.8717,1.8716,1.8659,1.8657,1.8656,1.8655,1.8629,1.863,1.863,0,0,0,0,0,0,0,0,0,0,0,0,0,1.8734,1.8745,1.8743,1.8711,1.8708,1.8717,1.8717,1.8716,1.8659,1.8657,1.8656,1.8654,1.8629,1.8629,1.863,1.8669,0,0,1.8632,1.8632,0,0,0,0,0,0,0,0,1.8735,1.8734,1.8716,1.8713,1.871,1.8689,1.8708,1.8701,1.866,1.8678,1.8655,1.8653,1.8651,1.8649,1.8648,1.8668,1.8667,1.8632,1.8632,1.8633,1.8633,0,0,0,0,0,0,0,1.8736,1.8735,1.8733,1.8716,1.8712,1.8698,1.8695,1.8706,1.8674,1.8676,1.8672,1.8669,1.8649,1.8648,1.8647,1.8667,1.8632,1.8633,1.8633,1.8633,1.8718,1.872,0,0,0,0,0,0,1.8741,1.8736,1.8734,1.8732,1.8718,1.8699,1.8696,1.8698,1.8674,1.8669,1.8671,1.8667,1.8648,1.8647,1.8646,1.8691,1.8633,1.8633,1.8634,1.8716,1.8719,1.8721,0,0,0,0,0,0,1.8741,1.8741,1.8735,1.8733,1.8731,1.8701,1.8704,1.8698,1.8697,1.867,1.8664,1.8676,1.8646,1.8645,1.8664,1.8689,1.8633,1.8634,1.8714,1.8717,1.872,1.8781,0,0,0,0,0,0,1.8742,1.8742,1.8756,1.8734,1.8731,1.8753,1.8706,1.8699,1.8698,1.8693,1.8673,1.8669,1.8645,1.8664,1.8665,1.8689,1.8634,1.8712,1.8715,1.8719,1.8776,1.8785,1.8793,0,0,0,0,0,1.8742,1.8774,1.8757,1.8757,1.8748,1.8754,1.8753,1.8725,1.8701,1.8715,1.8698,1.8669,1.8686,1.8666,1.8667,1.8692,1.871,1.8714,1.8718,1.8773,1.8784,1.8793,0,0,0,0,0,0,1.88,1.8771,1.8751,1.8777,1.8769,1.8745,1.8762,1.8737,1.8736,1.873,1.8696,1.8692,1.8716,1.8705,1.8683,1.8729,1.8694,1.8698,1.8735,1.8745,1.8753,1.8755,1.8635,0,0,0,0,0,1.8816,1.8823,1.8797,1.8823,1.8819,1.8792,1.8793,1.8772,1.8762,1.8758,1.8742,1.8734,1.8738,1.8741,1.8742,1.8775,1.877,1.8792,1.8801,1.8808,1.8812,1.8829,1.8839,1.8735,1.8734,1.8734,0,0,1.8849,1.8834,1.884,1.8834,1.8825,1.8834,1.8789,1.88,1.8806,1.876,1.8777,1.8765,1.8754,1.878,1.879,1.8772,1.884,1.8813,1.8819,1.8819,1.8835,1.8845,1.8853,1.8737,1.8737,1.8736,0,0,1.8914,1.8903,1.8923,1.8915,1.8902,1.8883,1.8888,1.8868,1.8859,1.8875,1.8841,1.8848,1.8855,1.8848,1.8846,1.8909,1.8883,1.8911,1.8954,1.8971,1.8979,1.8987,1.901,1.9018,1.8915,1.8915,1.8915,0,1.8956,1.8967,1.8937,1.895,1.8948,1.8907,1.8928,1.8922,1.891,1.8911,1.889,1.8898,1.8888,1.8912,1.8927,1.8927,1.8932,1.8912,1.8981,1.8987,1.8994,1.9015,1.9024,1.8919,1.8918,1.8918,1.8918,0,1.9021,1.9029,1.9047,1.9037,1.9037,1.9054,1.9027,1.9031,1.9011,1.8995,1.9012,1.8998,1.8997,1.9001,1.8981,1.9023,1.9012,1.8987,1.8951,1.9008,1.9027,1.9035,1.8924,1.8922,1.8921,1.8921,0,0,1.912,1.9093,1.9101,1.9096,1.9079,1.9085,1.9101,1.9099,1.9104,1.9098,1.911,1.9117,1.9094,1.9092,1.9071,1.9086,1.9137,1.9058,1.9058,1.9074,1.9183,1.9202,1.9212,1.912,1.9122,1.9123,1.9184,0,1.9181,1.9205,1.9178,1.9209,1.9216,1.9178,1.9192,1.9184,1.9169,1.9174,1.9158,1.9164,1.9133,1.9131,1.9144,1.9128,1.9159,1.9124,1.9132,1.9133,1.9136,1.9223,1.9243,1.9301,1.9192,1.9193,1.9194,0,1.9254,1.9251,1.9282,1.9264,1.9267,1.9279,1.9276,1.9281,1.9271,1.926,1.9258,1.9233,1.9247,1.9213,1.9233,1.9209,1.9211,1.9204,1.9206,1.9205,1.9167,1.9225,1.9319,1.9328,1.9206,1.9205,1.9204,0,1.9324,1.9328,1.9347,1.9344,1.9324,1.9334,1.9326,1.9314,1.9315,1.9313,1.9313,1.9313,1.9313,1.9313,1.9289,1.9266,1.9312,1.9275,1.9304,1.9305,1.9315,1.9315,1.9411,1.9317,1.9317,1.9316,1.9316,0,1.9394,1.9415,1.9378,1.939,1.9413,1.9382,1.9406,1.9394,1.9384,1.9393,1.9361,1.937,1.9338,1.9344,1.9325,1.9345,1.9345,1.9337,1.9332,1.934,1.9341,1.934,1.9336,1.9319,1.9318,1.9318,1.9317,0,1.9475,1.9452,1.9471,1.945,1.9445,1.9463,1.9445,1.9456,1.944,1.9452,1.9453,1.9428,1.9434,1.941,1.9412,1.9399,1.9429,1.9417,1.9433,1.9429,1.9459,1.9456,1.9558,1.9571,1.9468,1.9469,1.947,0,1.9521,1.9536,1.9518,1.9521,1.9515,1.9522,1.9523,1.9494,1.9497,1.9487,1.9499,1.9503,1.9504,1.9515,1.9497,1.9499,1.9487,1.9523,1.9487,1.9495,1.9488,1.9487,1.9489,1.953,1.9531,1.9532,1.9533,0,1.9606,1.9594,1.9597,1.9596,1.9598,1.9596,1.9591,1.9597,1.9566,1.9571,1.9576,1.9577,1.9579,1.9583,1.9581,1.9574,1.9549,1.9545,1.9551,1.956,1.9568,1.9564,1.9453,1.9542,1.9541,1.9541,1.954,1.954,1.9671,1.9683,1.9672,1.9676,1.967,1.9667,1.9676,1.9661,1.9666,1.9665,1.9648,1.9657,1.9648,1.9643,1.9638,1.9645,1.9628,1.9638,1.964,1.9643,1.9649,1.9567,1.9645,1.9644,1.9644,1.9644,1.9644,0,1.9754,1.9745,1.975,1.9745,1.9749,1.9725,1.9719,1.9724,1.9732,1.9726,1.9728,1.9735,1.9739,1.9722,1.9723,1.9733,1.9721,1.9734,1.9733,1.9732,1.9663,1.9657,1.9743,1.9743,1.9743,1.9743,1.9743,1.9743,1.9798,1.9817,1.9804,1.982,1.9811,1.9819,1.9818,1.9816,1.981,1.982,1.9823,1.9812,1.9801,1.9802,1.9805,1.98,1.9802,1.9819,1.981,1.9746,1.9737,1.9727,1.9722,1.982,1.982,1.9878,1.9879,1.9879]},{"header":{"parameterUnit":"m.s-1","parameterCategory":1,"la1":30.2991,"la2":30.254,"lo1":-89.0895,"lo2":-89.0444,"dy":0.0017,"dx":0.0017,"nx":28,"ny":28,"refTime":"2024-12-12T03:00:00:Z","depth":0,"parameterNumber":3,"parameterNumberName":"V-component_of_WINDS"},"data":[0,0,0,0,0,0,0,0,0,0,0,0,0,0,0,0,0,0,0,0,0,0,0,0,0,0,0,0,0,0,0,0,0,0,0,0,0,0,0,0,0,0,0,0,0,0,0,0,0,0,0,0,0,0,0,0,0,0,-3.9767,-3.9768,0,-3.9926,-3.9927,-3.9929,-3.9831,-3.9826,-3.9822,-3.9817,-3.9982,-3.9991,-3.9999,0,0,0,0,0,0,0,0,0,0,0,0,0,-3.9381,-3.9388,-3.9766,-3.9768,-3.977,-3.9925,-3.9927,-3.993,-3.9832,-3.9826,-3.982,-3.9815,-3.9979,-3.999,-4.0,0,0,0,0,0,0,0,0,0,0,0,0,0,-3.9545,-3.9391,-3.9766,-3.974,-3.9739,-3.9925,-3.9927,-3.993,-3.9833,-3.9826,-3.9819,-3.9812,-3.9976,-3.9989,-4.0002,-4.0222,0,0,-4.0042,-4.0047,0,0,0,0,0,0,0,0,-3.9536,-3.9559,-3.9742,-3.9742,-3.9742,-3.9851,-3.9852,-4.0028,-3.9835,-3.9798,-3.9817,-3.9809,-3.9944,-3.996,-4.0005,-4.023,-4.0237,-4.0043,-4.0051,-4.0056,-4.006,0,0,0,0,0,0,0,-3.9525,-3.9552,-3.9829,-3.9745,-3.9745,-3.9721,-3.9737,-3.9885,-3.9908,-3.98,-3.9793,-3.9813,-3.9943,-3.9993,-4.0008,-4.0239,-4.0042,-4.0054,-4.0062,-4.0067,-4.0655,-4.0663,0,0,0,0,0,0,-3.9515,-3.9543,-3.9824,-3.9834,-3.9619,-3.9734,-3.9752,-3.9823,-3.9906,-3.9912,-3.9819,-3.9808,-3.9974,-3.9993,-4.0013,-4.0279,-4.0056,-4.0068,-4.0076,-4.0648,-4.0657,-4.0665,0,0,0,0,0,0,-3.9507,-3.9541,-3.9818,-3.9687,-3.972,-3.9748,-3.9829,-3.983,-3.9879,-3.9921,-3.9925,-3.9866,-3.9969,-3.9995,-4.0171,-4.0284,-4.0074,-4.0086,-4.0638,-4.0651,-4.0661,-4.0812,0,0,0,0,0,0,-3.9496,-3.9539,-3.9622,-3.9689,-3.9728,-3.9973,-3.9836,-3.9838,-3.9902,-3.9889,-3.9965,-3.9971,-3.9965,-4.0152,-4.0184,-4.0298,-4.0097,-4.0629,-4.0644,-4.0658,-4.0797,-4.0827,-4.0853,0,0,0,0,0,-3.9483,-3.9658,-3.9627,-3.9661,-3.9833,-3.998,-4.0002,-3.9991,-3.9911,-3.9996,-4.0023,-3.9969,-4.0265,-4.0171,-4.0206,-4.0326,-4.0622,-4.064,-4.0656,-4.0785,-4.0821,-4.0852,0,0,0,0,0,0,-3.9604,-3.9666,-3.9632,-3.9834,-3.9903,-3.9963,-4.0069,-4.003,-4.0122,-4.0107,-4.009,-4.0108,-4.0293,-4.0326,-4.022,-4.0544,-4.0431,-4.0457,-4.0516,-4.0552,-4.0579,-4.0569,-4.0107,0,0,0,0,0,-3.9654,-3.9767,-3.9816,-3.9989,-4.0025,-4.0042,-4.0105,-4.0091,-4.0161,-4.019,-4.0229,-4.03,-4.0409,-4.0482,-4.0584,-4.08,-4.0817,-4.09,-4.0927,-4.095,-4.0974,-4.1093,-4.1131,-4.0723,-4.0723,-4.0722,0,0,-3.9759,-3.9807,-3.988,-4.0015,-4.0066,-4.0185,-4.0067,-4.0197,-4.0286,-4.021,-4.0379,-4.0411,-4.0488,-4.0686,-4.0775,-4.072,-4.1089,-4.0973,-4.099,-4.1001,-4.1115,-4.1153,-4.1188,-4.0735,-4.0733,-4.0731,0,0,-4.0012,-4.0058,-4.0209,-4.0263,-4.0341,-4.0351,-4.0388,-4.0454,-4.0472,-4.0642,-4.0588,-4.0693,-4.0881,-4.0939,-4.0994,-4.1269,-4.1224,-4.1303,-4.1451,-4.1567,-4.1599,-4.1628,-4.1729,-4.1765,-4.1325,-4.1326,-4.1326,0,-4.0133,-4.031,-4.0292,-4.0428,-4.049,-4.0425,-4.0579,-4.0632,-4.0741,-4.0786,-4.0721,-4.0957,-4.1005,-4.1217,-4.1284,-4.1329,-4.1372,-4.1296,-4.1596,-4.1624,-4.1651,-4.1747,-4.1785,-4.1335,-4.1334,-4.1333,-4.1332,0,-4.0456,-4.0579,-4.0692,-4.0799,-4.0873,-4.1017,-4.1023,-4.11,-4.108,-4.1097,-4.1271,-4.1326,-4.144,-4.1488,-4.1469,-4.1698,-4.1662,-4.1597,-4.1484,-4.1699,-4.179,-4.1826,-4.1348,-4.1345,-4.1342,-4.134,0,0,-4.0792,-4.0887,-4.0929,-4.0977,-4.1059,-4.1155,-4.1296,-4.1407,-4.1475,-4.1551,-4.1672,-4.1832,-4.1773,-4.1835,-4.1822,-4.1924,-4.2142,-4.1847,-4.1848,-4.1903,-4.2402,-4.2452,-4.2495,-4.2111,-4.2118,-4.2123,-4.2396,0,-4.1052,-4.1299,-4.1288,-4.152,-4.1635,-4.1575,-4.1698,-4.1763,-4.1782,-4.1884,-4.1905,-4.202,-4.1932,-4.197,-4.2067,-4.2095,-4.2243,-4.2074,-4.2225,-4.2231,-4.2211,-4.2542,-4.2596,-4.2851,-4.2431,-4.2437,-4.2441,0,-4.1389,-4.1478,-4.1721,-4.1787,-4.1835,-4.1947,-4.2048,-4.2145,-4.2217,-4.2224,-4.2294,-4.2264,-4.2409,-4.2289,-4.249,-4.2376,-4.2436,-4.2459,-4.2468,-4.2485,-4.2352,-4.2571,-4.2932,-4.2972,-4.2496,-4.2492,-4.2488,0,-4.1614,-4.1794,-4.1963,-4.2006,-4.2086,-4.2167,-4.2204,-4.2269,-4.2337,-4.2425,-4.247,-4.2574,-4.2632,-4.2714,-4.2714,-4.2626,-4.2918,-4.2797,-4.293,-4.2931,-4.2997,-4.2994,-4.3377,-4.3031,-4.303,-4.3029,-4.3028,0,-4.1908,-4.206,-4.2065,-4.217,-4.2339,-4.2325,-4.2493,-4.2522,-4.2581,-4.2691,-4.2644,-4.2749,-4.2741,-4.2847,-4.2847,-4.3015,-4.3041,-4.3052,-4.3051,-4.3059,-4.3058,-4.3101,-4.3084,-4.3039,-4.3037,-4.3035,-4.3033,0,-4.2189,-4.2198,-4.2379,-4.2441,-4.246,-4.2582,-4.2635,-4.2735,-4.275,-4.289,-4.2923,-4.2947,-4.3069,-4.3076,-4.3218,-4.3218,-4.3423,-4.34,-4.3399,-4.3397,-4.353,-4.3519,-4.3957,-4.4015,-4.3628,-4.3632,-4.3635,0,-4.2378,-4.2494,-4.2567,-4.2638,-4.268,-4.2794,-4.2863,-4.2853,-4.2927,-4.3018,-4.3108,-4.3226,-4.3321,-4.3519,-4.355,-4.3659,-4.3641,-4.3787,-4.3657,-4.3662,-4.3647,-4.3642,-4.3655,-4.3813,-4.3817,-4.3821,-4.3824,0,-4.2713,-4.2712,-4.2813,-4.2917,-4.3001,-4.3082,-4.3157,-4.3218,-4.3217,-4.3302,-4.3427,-4.3501,-4.3645,-4.3764,-4.387,-4.3909,-4.3869,-4.3864,-4.3901,-4.3912,-4.3908,-4.3915,-4.3472,-4.3855,-4.3852,-4.3849,-4.3848,-4.3846,-4.2956,-4.3057,-4.3126,-4.324,-4.3296,-4.3368,-4.3466,-4.3493,-4.3596,-4.3713,-4.3701,-4.384,-4.391,-4.4048,-4.4096,-4.4206,-4.4156,-4.4209,-4.4223,-4.4237,-4.4253,-4.3887,-4.4224,-4.4223,-4.4222,-4.4222,-4.4221,0,-4.3292,-4.3333,-4.3438,-4.3546,-4.3637,-4.3588,-4.3669,-4.3749,-4.3872,-4.394,-4.4034,-4.4179,-4.4294,-4.4334,-4.4446,-4.4526,-4.4511,-4.4557,-4.4553,-4.4563,-4.4289,-4.4248,-4.4568,-4.4568,-4.4568,-4.4567,-4.4567,-4.4567,-4.3478,-4.3647,-4.3655,-4.3851,-4.3891,-4.4027,-4.4078,-4.4145,-4.42,-4.4364,-4.4459,-4.4483,-4.4541,-4.4657,-4.4762,-4.477,-4.4815,-4.487,-4.4872,-4.4616,-4.4582,-4.4549,-4.451,-4.4879,-4.488,-4.5136,-4.5139,-4.5141]}]]